Theta_e
300 301 302 301 298 298 297 298 299 298 299 298 295 296 298 299 293 290 296 298 294 293 294 295 295 296 296 296 297 299 301 301 301 302 302 301 301 303 303 303 304 304 304 305 305 306 306 307 308 308 308 308 309 310 309 310 311 311 312 312 312 311 312 312 312 312 313 313 314 314 313 313 313 313 313 314 314 314 313 313 314 314 315 316 316 317 320
299 299 300 300 299 299 299 299 300 299 299 299 298 298 300 301 300 300 299 298 295 295 294 295 296 297 297 297 299 299 299 299 301 301 301 301 302 302 302 303 303 304 304 305 305 305 306 306 306 306 307 307 307 308 309 309 310 311 311 311 311 311 310 311 311 311 311 312 312 312 312 312 312 312 312 312 312 312 311 312 312 313 313 313 312 313 314
298 300 301 300 298 299 298 298 297 297 299 302 302 304 304 303 300 299 297 294 290 294 296 295 296 296 296 296 295 296 297 299 300 300 300 301 301 302 302 303 303 304 304 304 304 304 304 305 305 305 306 307 308 308 308 308 309 310 310 310 310 310 309 310 310 310 310 310 310 310 311 311 311 311 311 311 310 310 310 310 310 310 311 310 310 310 311
293 300 300 302 302 301 300 300 301 301 303 300 300 300 304 302 296 296 294 289 286 291 294 294 295 295 294 293 294 295 296 298 299 299 300 301 301 301 302 302 303 303 303 303 303 303 304 305 305 305 305 306 306 306 307 308 309 310 310 309 309 309 309 309 309 309 309 309 309 309 309 309 309 310 310 309 309 308 308 308 308 309 308 308 308 308 308
290 300 300 299 299 297 292 292 296 299 301 302 303 304 305 303 300 293 291 292 292 292 294 292 292 293 293 293 294 294 296 297 299 299 300 300 300 300 301 301 301 302 302 303 304 304 304 304 304 305 305 306 306 306 307 308 309 308 308 308 308 308 308 308 308 308 308 308 307 308 308 308 308 309 308 308 307 307 307 308 307 306 306 306 305 305 305
292 297 298 299 293 284 286 296 299 299 300 301 298 296 298 300 302 299 299 293 293 293 293 292 291 292 292 294 295 297 297 297 298 298 299 300 300 301 301 301 301 301 302 302 303 303 304 304 304 305 306 305 306 307 307 307 307 308 307 307 307 306 307 307 307 308 307 307 307 307 308 308 308 307 307 306 307 307 307 307 305 305 305 304 304 304 303
291 294 296 291 284 284 292 298 300 302 302 301 298 298 299 299 297 296 293 293 292 294 294 293 293 293 294 296 296 296 298 298 298 298 298 299 300 300 300 300 300 301 301 302 303 303 303 304 305 305 305 306 307 307 307 306 307 307 307 307 306 306 305 306 306 306 306 306 306 306 307 307 307 306 306 306 306 306 305 305 304 303 303 302 302 302 302
293 291 290 283 283 290 296 297 300 301 301 299 297 293 295 296 296 295 293 293 293 293 293 293 294 293 294 295 296 296 297 298 298 298 298 299 299 299 300 300 300 301 301 302 302 303 304 304 304 304 305 306 306 306 307 306 306 306 306 306 305 306 305 305 305 305 305 305 305 305 306 306 305 305 305 305 305 305 305 305 305 304 303 302 301 301 301
288 290 289 286 288 290 291 293 295 298 295 297 297 286 289 295 296 296 293 292 292 291 292 293 293 294 294 291 292 296 297 298 299 299 299 300 300 300 301 301 301 303 303 303 303 304 304 304 304 304 305 306 306 306 305 305 305 305 305 305 305 305 305 305 306 306 306 305 305 305 305 305 304 304 304 304 304 305 304 304 303 303 302 302 301 300 299
293 289 286 285 284 283 287 295 300 302 303 301 300 294 288 295 296 296 293 291 291 291 292 292 293 294 290 286 288 294 297 298 298 299 300 300 301 301 301 302 302 303 303 303 304 303 304 304 305 305 305 305 305 305 304 305 304 304 304 304 304 304 305 305 305 306 306 305 304 304 304 304 304 304 304 304 304 304 303 303 302 303 303 302 302 301 299
292 290 287 287 284 287 294 296 299 302 303 305 303 296 287 294 296 296 295 292 292 292 291 292 294 292 287 286 288 294 296 297 298 298 299 300 300 301 301 302 301 301 302 302 303 303 303 303 304 305 305 305 304 303 303 304 304 303 303 304 304 304 304 305 305 305 305 305 304 304 304 304 305 304 304 303 304 304 303 303 303 303 302 302 302 301 300
291 289 288 286 288 287 295 299 301 302 305 304 301 287 287 293 296 296 295 293 293 293 294 294 294 293 287 287 290 295 297 298 298 298 298 298 299 300 301 302 302 302 302 302 302 303 302 303 305 305 304 304 303 303 303 303 303 303 303 304 304 305 305 305 305 305 305 304 304 304 304 304 305 304 305 304 303 303 303 302 302 302 302 302 301 301 300
291 289 288 287 288 295 299 299 302 303 305 301 289 286 291 296 296 297 297 296 296 296 294 296 294 296 295 293 295 297 297 297 298 299 300 300 300 300 300 300 300 301 302 302 301 301 302 303 303 304 303 303 302 302 303 302 302 303 304 305 304 304 305 305 305 304 304 304 304 305 305 304 305 305 304 303 303 302 302 302 302 301 301 301 301 301 301
290 291 288 287 289 295 300 301 302 304 299 288 289 296 300 298 297 298 298 297 297 297 296 296 295 295 296 296 296 296 296 297 298 299 299 300 300 301 301 300 301 302 301 302 302 302 302 303 303 303 302 301 301 301 301 301 302 304 304 304 304 304 304 304 304 304 304 304 305 305 305 305 304 303 304 304 303 302 302 301 301 300 300 300 300 299 300
294 292 288 286 283 291 301 301 300 300 292 293 298 299 299 300 298 297 297 296 296 297 295 295 295 295 295 295 295 296 297 297 298 298 298 299 299 300 300 301 301 301 301 301 301 302 302 303 303 303 302 301 301 301 300 301 302 303 304 304 303 304 303 303 303 303 303 304 304 304 304 304 303 303 303 303 302 302 302 301 301 300 299 299 299 298 298
288 290 286 286 293 298 303 302 292 298 300 302 302 300 297 299 298 296 295 296 296 296 295 293 293 294 294 295 296 297 297 298 299 299 299 300 301 300 301 301 301 301 301 301 301 302 302 303 303 303 302 300 300 300 300 302 303 303 303 304 303 303 303 303 303 303 303 303 304 304 303 303 303 303 302 302 302 301 301 300 300 299 298 299 298 296 295
291 290 291 296 300 301 302 302 301 302 304 304 303 302 300 298 298 300 297 296 296 296 295 295 294 294 296 296 297 296 297 298 298 299 299 300 300 300 300 300 301 301 301 301 301 301 302 303 303 302 302 301 300 300 301 302 302 302 302 302 302 302 302 302 303 303 303 303 303 303 303 303 302 301 301 301 300 301 300 299 299 298 298 298 297 296 295
294 296 297 299 299 300 300 302 303 302 302 303 303 301 299 300 300 301 298 297 297 297 297 295 295 296 297 297 297 297 298 299 299 300 300 300 301 300 301 301 301 300 301 301 300 300 301 302 302 302 302 302 300 301 302 302 302 302 302 301 301 301 302 302 302 302 302 302 303 304 304 303 302 301 301 300 299 299 299 299 298 298 297 297 296 296 295
293 286 297 296 296 299 300 300 302 303 304 302 303 302 301 300 301 300 300 299 298 298 298 297 296 296 297 297 298 299 299 299 299 299 299 300 299 299 299 300 300 300 300 299 300 300 300 302 302 302 303 302 302 302 302 302 302 302 301 301 301 301 301 301 302 301 301 301 301 302 303 303 303 302 300 300 300 298 298 298 298 297 297 297 296 296 295
292 289 294 297 299 299 300 300 299 299 301 302 302 302 302 302 302 301 300 300 299 300 298 298 298 297 298 298 298 299 299 299 299 298 298 298 297 298 299 299 299 300 300 299 299 300 300 301 301 302 302 302 303 303 303 302 303 302 301 300 300 301 301 301 300 300 301 294 298 301 301 302 301 301 301 301 300 299 298 298 298 297 297 297 297 296 295
291 295 296 297 299 298 298 300 301 301 301 301 301 301 300 301 300 300 300 301 300 300 299 299 298 298 298 299 300 298 298 298 297 297 297 297 297 297 297 298 299 300 300 299 300 299 300 300 301 301 302 302 303 304 303 303 303 302 300 299 301 301 301 300 299 300 300 300 300 300 300 302 302 301 300 301 300 300 301 300 299 299 299 298 298 298 298
287 289 292 296 290 289 295 298 299 300 302 301 300 300 299 300 299 299 299 299 300 300 300 300 299 299 299 300 299 297 297 297 297 297 297 297 297 298 299 299 299 300 300 300 300 300 300 300 300 300 302 303 303 303 303 302 302 301 301 300 300 300 300 299 299 300 300 299 300 299 300 300 302 299 291 289 295 301 300 291 286 287 290 296 296 299 299
290 297 298 301 300 298 297 298 300 301 302 300 299 298 299 300 300 300 299 298 299 299 300 300 300 299 299 298 298 297 296 297 298 298 297 296 297 297 299 299 299 299 299 300 300 299 300 300 300 300 301 303 303 303 303 302 302 301 301 300 299 299 299 299 297 299 300 300 300 299 300 299 299 298 301 297 288 288 289 290 289 288 288 288 288 288 295
301 300 299 302 299 296 297 299 300 301 302 301 299 300 300 300 300 300 300 300 299 299 300 300 300 299 298 298 298 297 297 298 297 297 297 297 297 298 298 298 298 299 299 299 298 298 299 300 300 300 300 302 303 303 303 303 302 302 301 300 299 299 299 300 299 299 300 300 300 299 299 299 299 299 298 298 298 290 288 289 289 289 289 289 288 289 288
298 301 302 302 300 299 300 300 301 301 302 301 300 299 300 300 300 301 300 300 301 300 298 298 298 299 298 297 297 297 296 296 297 296 297 296 296 297 298 298 298 298 298 298 298 299 299 299 300 299 300 301 302 303 303 302 302 301 301 301 300 300 300 300 299 299 298 299 299 300 299 299 299 298 297 296 297 299 293 287 287 289 289 289 289 289 289
302 302 301 301 301 300 301 300 300 300 300 301 300 300 301 300 301 301 300 300 299 299 299 298 298 298 298 297 298 298 296 295 294 294 296 296 296 297 297 298 299 299 298 298 298 299 299 299 299 299 299 300 302 303 303 303 302 301 301 301 301 300 300 300 300 300 300 300 299 299 299 299 298 298 298 298 298 298 298 297 297 292 289 289 289 289 289
302 302 300 298 297 298 300 298 296 300 300 301 300 300 300 301 300 300 300 299 299 299 299 299 299 299 299 298 297 297 296 296 297 297 297 297 296 297 298 300 300 300 299 299 299 297 297 299 299 299 299 300 302 303 303 303 302 301 301 301 301 296 291 296 301 300 300 300 299 299 299 299 298 297 298 298 297 297 297 296 296 296 300 298 292 290 295
300 301 301 297 295 296 297 299 300 300 300 300 300 300 300 300 300 299 298 298 298 299 299 299 299 299 298 297 296 295 296 296 295 296 296 296 297 299 300 300 301 300 299 299 299 299 299 299 299 299 299 301 301 302 303 303 302 302 301 301 301 300 301 299 300 300 300 300 300 299 298 299 299 297 297 297 296 297 296 296 296 296 296 297 299 291 289
300 300 301 301 300 300 300 300 299 299 299 300 300 300 299 297 297 297 297 298 298 299 298 299 299 299 297 297 297 296 296 296 295 296 296 297 298 299 300 300 300 300 299 299 299 300 300 299 299 299 300 301 301 302 302 303 302 301 300 301 300 300 300 298 299 300 300 301 301 300 294 296 297 298 297 298 297 297 297 296 295 296 297 298 298 300 295
300 301 301 300 300 300 299 298 298 298 298 299 298 298 298 297 296 296 297 297 298 297 298 299 299 299 299 298 298 297 296 296 296 297 297 297 298 299 300 300 299 299 299 299 299 299 300 299 299 298 300 301 301 301 302 303 302 302 301 301 301 300 299 296 300 300 300 300 299 295 297 298 298 299 297 297 297 296 296 296 294 295 296 296 294 296 296
300 300 300 300 300 299 298 298 298 298 297 297 298 298 298 298 297 297 297 297 298 298 299 299 299 299 299 299 299 299 298 298 297 297 298 298 299 299 299 300 299 297 297 298 299 299 299 300 299 299 301 301 301 301 301 301 301 301 301 300 301 292 290 292 293 298 300 297 298 298 298 297 298 296 295 295 296 296 296 296 295 294 294 296 296 296 296
298 298 299 299 299 298 298 298 297 297 297 298 297 296 297 297 296 296 297 297 298 298 299 299 299 299 300 301 300 299 299 298 298 298 298 298 296 293 296 298 297 295 299 299 299 299 299 300 299 300 301 301 301 301 301 301 300 300 300 295 299 299 295 292 295 296 299 295 298 298 296 297 297 297 296 296 296 295 295 295 295 294 295 294 295 296 295
297 295 295 297 297 297 296 296 296 296 296 296 296 297 298 298 298 297 298 298 298 299 299 299 300 301 301 301 300 299 298 298 298 297 294 290 290 292 297 299 299 299 298 300 300 301 300 300 300 301 301 301 301 301 301 301 300 299 299 299 299 298 294 295 294 297 297 297 298 297 297 296 297 297 296 295 296 295 296 295 293 294 295 295 296 297 296
298 297 298 298 297 295 295 295 296 296 296 297 298 298 298 298 298 299 299 299 299 299 300 300 301 302 301 300 299 297 296 294 293 291 288 288 289 292 298 297 299 299 300 300 301 301 302 301 302 302 301 301 301 301 300 300 300 300 299 298 299 298 297 296 298 297 296 297 297 299 297 298 298 298 297 296 297 296 295 294 293 293 293 295 296 296 291
301 300 300 300 299 299 298 297 296 296 297 296 297 298 299 299 299 299 300 300 299 300 301 301 301 301 300 298 295 293 292 291 290 289 288 289 291 290 297 299 299 299 299 301 301 301 301 302 302 301 301 301 301 301 300 299 299 299 300 299 298 298 298 295 296 296 295 296 298 298 298 298 297 294 296 296 297 297 296 294 294 294 294 294 296 296 295
300 299 298 298 298 298 298 298 298 299 298 298 298 299 299 299 300 300 299 300 301 301 301 301 301 301 297 291 291 289 289 290 289 289 289 289 290 292 296 298 299 299 299 300 301 301 302 302 290 288 300 300 300 301 300 298 298 299 300 300 298 298 297 296 296 295 295 296 297 296 297 294 295 295 296 297 297 298 297 297 295 294 295 295 295 295 295
300 298 298 298 298 299 299 298 299 299 299 299 300 299 299 299 299 300 301 301 301 302 301 301 301 299 293 291 291 290 290 291 292 291 291 290 291 292 296 297 298 299 298 297 300 302 302 302 289 282 293 300 301 301 299 288 297 298 299 300 299 298 297 298 297 296 295 295 295 296 295 295 297 298 296 298 297 297 296 297 295 296 295 295 295 295 294
299 299 299 298 299 299 299 300 300 301 300 300 300 300 299 300 300 300 301 301 301 302 302 301 300 300 299 296 291 289 289 290 289 289 289 289 294 295 297 297 297 299 296 295 301 301 302 296 284 293 300 301 301 301 295 284 287 295 298 299 299 298 297 297 296 296 295 295 293 296 295 295 296 296 297 297 298 297 296 296 296 296 296 295 294 294 294
298 299 299 299 300 300 300 300 301 301 300 299 299 299 300 301 301 301 301 301 302 301 301 301 301 300 298 298 297 296 291 288 288 289 289 292 296 296 295 298 299 301 300 303 302 302 301 299 302 301 301 302 300 301 293 286 285 297 299 301 300 298 297 296 296 295 295 296 295 294 295 294 295 295 295 297 296 296 294 296 295 294 296 296 295 295 296
298 298 299 299 299 299 299 299 300 299 300 300 299 299 300 300 301 300 300 301 302 302 301 301 301 299 298 298 298 297 297 297 295 293 295 297 298 298 299 299 301 302 301 294 300 302 297 290 297 301 301 302 301 301 297 294 293 296 299 299 299 297 297 297 296 295 295 295 294 291 294 294 295 294 294 295 296 295 296 297 297 297 297 298 297 297 296
299 299 299 299 299 300 299 299 299 300 300 300 300 301 301 301 300 300 300 301 302 301 302 301 300 299 299 299 299 299 299 298 298 298 298 298 298 298 296 296 302 303 302 302 303 302 297 297 299 300 301 301 301 296 300 293 297 299 299 299 298 298 297 297 295 295 295 295 294 296 295 295 294 295 294 295 296 296 296 297 297 297 298 297 297 297 297
300 300 300 300 299 299 299 300 300 300 300 301 300 301 301 301 300 300 301 301 300 301 301 300 298 301 300 300 300 300 299 299 299 299 299 299 298 298 295 299 303 302 296 296 297 297 299 299 299 296 300 301 298 288 289 297 298 299 299 298 298 298 297 296 296 295 296 295 296 296 296 296 295 295 294 295 295 296 296 297 297 297 297 297 297 297 297
299 299 299 299 299 300 300 299 299 300 300 300 301 301 301 301 301 301 301 301 300 300 301 301 299 297 300 300 300 300 300 301 301 301 301 301 301 302 300 301 303 301 289 297 301 301 301 302 301 302 294 296 297 284 285 296 298 299 299 298 297 297 297 296 296 296 296 296 296 296 296 296 295 295 295 295 296 296 297 296 297 297 296 297 298 297 297
300 300 300 300 300 300 300 300 299 299 299 300 301 301 301 301 301 300 300 300 300 300 300 301 300 300 300 300 300 299 299 300 300 300 300 300 300 302 302 302 302 296 290 298 299 300 301 301 301 293 285 286 284 284 295 298 298 298 299 298 297 298 297 297 296 296 297 295 296 296 296 294 295 296 296 295 295 296 295 296 296 297 297 297 298 297 297
300 300 300 300 300 300 300 299 299 299 300 301 301 301 301 300 301 301 301 300 300 300 298 300 300 299 300 299 300 300 300 301 300 300 298 297 297 299 302 297 300 299 298 295 299 299 300 301 293 288 290 287 286 286 297 298 298 298 298 298 298 297 297 296 296 296 296 297 296 296 296 296 296 296 296 296 293 295 296 296 296 296 296 296 297 297 296
300 300 301 295 300 300 300 301 301 301 301 300 300 299 300 301 300 300 300 300 300 300 300 301 301 300 300 300 300 301 301 301 302 302 302 301 300 301 302 298 300 296 291 290 300 300 301 285 285 286 285 285 286 294 298 297 297 298 298 298 298 296 297 298 296 296 296 296 296 296 295 296 296 296 296 296 296 296 295 293 294 296 297 296 297 297 297
300 300 301 301 301 301 301 301 301 300 300 299 298 298 299 300 300 300 300 301 301 301 301 301 301 301 301 301 300 299 299 300 300 301 302 302 301 299 296 292 290 288 293 299 299 301 299 297 290 284 286 286 285 297 298 299 299 299 298 298 297 297 297 298 297 297 297 297 295 293 292 295 296 296 294 295 296 296 295 293 295 295 295 294 295 295 295
300 300 300 300 301 301 301 301 300 300 299 298 299 300 300 300 301 301 301 300 300 301 300 301 301 301 302 302 302 302 302 300 297 300 301 301 302 302 301 301 298 292 293 292 292 290 281 284 284 285 285 284 293 298 299 299 298 299 299 299 299 298 298 297 297 297 296 297 295 296 296 297 296 296 296 296 295 295 295 294 294 294 295 295 294 295 296
301 300 301 300 301 301 301 300 299 298 299 300 299 299 300 300 300 300 300 300 300 299 300 301 301 301 301 299 300 301 301 302 300 299 301 302 301 301 301 293 286 286 294 298 299 299 288 285 285 286 284 285 296 298 299 299 299 296 297 297 297 297 297 297 297 297 297 296 296 295 296 296 297 297 296 295 295 295 293 294 293 292 293 293 294 295 295
301 301 300 300 300 300 300 299 298 299 300 300 300 300 301 300 298 299 299 299 299 299 300 300 300 300 301 301 300 301 301 301 301 301 302 302 302 302 300 299 298 293 293 299 300 298 287 283 285 285 289 297 298 298 299 300 298 297 297 296 296 297 297 294 292 291 294 294 296 296 296 295 296 294 294 294 295 294 294 293 294 292 291 292 294 295 295
300 299 300 299 300 301 302 301 301 301 301 300 301 300 299 299 298 298 299 299 299 298 298 299 300 300 300 300 300 300 301 301 300 297 301 300 301 297 297 298 298 294 296 295 297 298 298 298 297 294 295 296 297 298 297 298 297 295 293 295 296 295 295 295 294 295 296 296 295 295 295 295 296 296 294 295 294 294 294 295 293 293 293 294 294 294 295
301 301 301 301 301 301 301 301 301 301 301 301 301 300 299 299 299 299 299 293 298 299 298 298 298 300 300 300 299 300 300 300 299 299 296 297 299 300 297 293 299 296 297 297 297 299 299 299 294 292 292 295 296 297 293 291 294 295 296 293 293 294 293 293 293 294 295 295 295 296 295 296 296 296 294 295 294 295 293 293 294 293 295 294 294 293 295
Wind_Speed
5 1 2 5 10 15 16 14 14 14 12 13 8 11 4 3 4 2 12 13 17 16 14 14 13 14 14 13 13 12 13 13 12 11 11 11 10 10 10 10 9 9 9 9 9 9 9 9 10 10 9 10 11 12 12 11 11 11 11 12 12 12 12 13 13 13 13 13 13 13 14 14 14 14 14 14 14 14 14 14 12 14 15 15 15 15 16
8 5 6 14 14 7 9 13 13 10 11 11 14 10 4 2 13 16 15 15 16 14 15 14 13 13 14 13 12 12 13 12 12 11 11 10 10 10 10 9 9 9 9 9 9 9 10 11 11 10 10 10 11 11 11 12 11 12 12 11 12 12 12 13 13 13 13 13 13 14 14 14 15 15 15 15 14 15 15 15 15 14 15 15 14 14 14
9 8 7 6 9 8 10 6 6 6 7 9 7 11 17 21 16 18 20 20 16 10 14 15 14 13 12 12 13 13 12 12 12 11 11 10 10 10 9 9 9 9 9 9 9 10 10 10 10 10 10 9 10 11 11 11 11 11 11 12 11 12 13 13 13 14 13 13 14 14 14 14 15 16 16 15 15 15 15 15 15 15 15 15 15 14 15
5 9 11 13 14 16 16 12 9 6 9 11 8 8 6 15 18 19 19 15 11 12 14 14 14 14 14 14 14 13 11 11 11 11 11 10 10 9 9 9 8 8 9 10 10 9 9 10 10 10 10 10 10 10 11 11 11 11 11 11 12 12 13 13 13 14 13 14 14 14 14 15 15 15 15 16 16 15 15 16 15 15 15 15 14 14 13
7 9 12 14 15 14 10 6 5 5 6 9 12 13 12 16 20 16 9 9 14 16 15 16 14 15 14 13 12 12 12 11 11 11 11 10 10 9 9 9 8 9 8 9 9 9 9 9 9 10 9 9 10 10 10 10 10 10 11 11 12 12 12 13 13 13 14 14 14 14 14 15 14 14 15 16 16 16 16 16 15 15 15 16 15 14 13
7 9 7 8 9 11 5 5 1 9 4 10 14 13 13 11 5 6 11 18 18 17 16 17 17 15 13 12 12 10 11 11 11 10 10 11 10 10 9 8 9 8 8 8 8 8 9 9 8 8 9 9 9 9 10 10 10 10 11 11 11 11 12 12 13 13 14 14 14 14 15 15 15 15 15 15 16 14 15 15 15 15 15 16 15 15 15
8 7 8 8 10 4 2 4 2 2 8 13 16 15 12 13 17 21 22 20 19 17 16 16 16 15 14 13 13 11 10 10 10 11 11 10 10 10 9 9 8 8 8 8 8 8 8 8 8 8 8 8 8 9 9 10 10 10 10 11 11 11 11 12 12 13 13 14 14 14 15 15 15 15 16 15 16 14 14 15 15 15 15 15 14 14 15
5 6 5 7 3 2 3 4 5 9 13 14 18 17 13 11 13 18 19 18 18 18 18 17 17 17 16 14 12 11 10 9 9 10 9 10 9 9 8 9 8 8 8 8 8 8 7 7 7 7 7 7 8 9 9 10 10 11 11 11 11 12 12 12 12 13 13 13 14 14 14 14 14 15 15 16 17 15 14 14 14 14 14 14 15 15 15
6 5 4 3 4 6 4 7 7 10 8 9 3 7 6 8 11 15 19 19 18 18 18 18 18 18 16 14 10 8 9 9 9 9 10 9 9 9 9 8 8 8 8 8 8 8 8 7 7 8 8 8 8 9 9 9 10 11 10 12 12 12 12 13 13 13 13 13 13 14 14 15 15 15 14 15 14 14 15 15 15 15 15 14 14 15 16
5 8 7 6 5 4 7 7 8 4 5 9 11 12 6 6 10 14 17 19 19 20 19 18 18 16 14 11 8 8 9 10 10 9 9 9 9 9 9 8 8 8 7 7 7 7 8 8 8 8 8 8 8 9 9 10 10 10 11 11 11 12 12 13 13 14 13 13 13 13 13 14 14 14 14 12 12 12 14 15 15 15 14 14 15 15 16
8 8 8 5 6 3 4 12 11 6 6 6 9 5 6 7 11 14 16 19 18 18 19 19 16 9 8 8 8 9 10 10 9 10 9 9 9 8 8 8 8 7 7 7 7 7 7 8 8 8 8 9 8 9 9 9 9 10 10 11 11 12 12 12 13 13 13 13 13 13 14 13 13 14 13 13 13 12 12 13 14 14 14 14 15 14 15
6 7 6 3 5 1 6 11 10 9 6 7 6 6 7 13 14 14 16 17 18 17 17 15 11 7 9 11 11 12 11 10 10 9 9 9 9 8 8 7 7 6 5 6 6 6 7 8 7 8 8 8 9 8 9 9 10 10 10 10 10 10 11 11 11 12 12 13 13 13 13 14 14 13 12 12 14 13 12 11 12 13 14 14 16 14 15
5 7 4 6 3 4 8 9 9 8 6 5 6 4 9 17 16 15 15 17 16 16 14 9 6 3 9 13 15 14 12 11 11 10 9 9 9 8 7 7 5 5 5 5 6 7 7 8 8 8 8 8 9 9 9 9 9 10 10 10 10 10 10 11 11 12 12 13 14 14 14 13 13 13 12 12 13 14 13 12 12 12 13 13 14 15 15
7 5 4 5 5 2 5 7 7 8 7 4 2 7 14 19 18 16 16 17 16 14 10 8 10 13 18 18 15 14 13 12 11 10 10 9 9 8 7 5 4 5 5 5 6 7 7 7 7 7 7 8 8 8 8 9 10 9 9 10 10 10 11 11 11 11 12 12 12 12 13 13 13 13 13 13 12 13 12 12 14 14 14 13 12 13 13
3 6 7 5 5 3 6 10 6 6 3 5 9 15 17 16 18 18 16 15 13 12 13 14 16 18 17 17 15 14 13 13 12 11 10 9 9 8 8 6 4 5 7 6 7 6 6 6 7 7 8 8 8 7 9 10 9 9 9 9 10 10 10 10 10 11 11 12 12 11 12 13 14 14 14 14 13 13 14 13 14 14 14 14 13 13 13
2 5 4 3 5 12 11 9 3 4 6 11 14 15 16 16 16 16 14 12 12 14 16 18 17 17 17 16 15 15 13 13 12 11 10 9 8 7 7 7 6 6 6 7 6 6 6 6 6 6 7 7 8 8 10 10 9 9 9 9 9 10 10 10 11 11 11 11 11 11 13 13 13 14 14 14 14 13 13 13 13 13 13 13 13 13 12
4 5 5 7 10 10 5 4 11 10 12 13 15 15 16 17 14 14 13 15 15 15 17 16 17 16 15 16 15 14 14 12 12 11 10 9 8 8 7 7 6 6 6 6 5 6 5 5 6 6 6 7 8 9 9 8 9 9 9 9 10 10 10 10 10 10 9 9 9 10 11 13 13 12 13 14 13 14 13 12 13 13 12 13 12 12 12
14 13 10 9 10 10 10 10 10 13 13 15 15 17 16 14 14 13 15 17 17 17 16 17 15 15 16 16 15 14 13 12 12 11 10 9 8 7 6 4 4 6 6 5 6 5 5 5 5 5 5 6 8 8 8 8 9 9 8 9 9 10 9 9 10 10 11 10 8 9 10 10 11 12 12 12 13 13 13 13 12 12 12 12 13 12 12
6 5 5 10 12 11 12 12 12 12 14 14 14 14 15 15 15 16 16 17 17 17 16 15 17 17 16 16 15 14 13 12 12 11 10 8 7 7 7 4 3 3 4 5 5 5 6 5 5 4 5 6 7 8 8 9 9 9 9 10 9 9 10 10 10 10 10 10 9 8 9 8 9 10 11 11 11 11 12 12 12 12 12 12 12 12 11
2 9 9 10 11 11 11 11 12 13 14 15 13 13 14 15 16 17 17 17 17 16 16 17 18 17 16 16 14 13 12 11 11 10 9 8 7 6 5 3 3 5 5 6 5 5 5 5 5 5 5 6 6 6 7 9 9 8 8 8 9 10 11 9 9 10 10 8 9 9 9 7 7 8 9 10 10 10 10 10 11 11 11 12 12 10 10
12 13 11 11 12 11 11 12 12 12 12 14 16 16 16 17 19 19 18 16 16 16 17 17 17 17 16 14 14 13 12 11 10 10 9 8 7 7 6 4 3 5 5 6 6 5 5 5 6 6 6 6 5 6 7 7 8 9 8 9 8 10 9 9 10 9 10 10 10 10 10 7 6 7 6 8 9 8 7 7 6 7 9 10 10 9 9
10 10 13 17 11 9 10 11 13 13 14 16 17 17 17 18 19 18 18 17 16 17 17 17 15 16 14 14 14 13 12 11 11 10 9 9 8 8 7 6 7 6 5 5 5 5 5 5 6 6 6 5 6 7 6 7 8 9 9 8 8 8 9 9 10 9 9 10 10 10 10 9 5 5 4 5 6 7 5 3 5 6 6 6 6 6 8
7 12 18 11 8 13 12 12 13 14 15 16 17 17 18 18 18 18 18 19 18 17 16 15 15 15 14 14 13 12 11 11 10 10 10 9 8 8 8 7 7 7 6 5 5 5 5 5 6 6 6 6 6 6 6 6 8 9 9 8 7 8 9 9 9 9 9 9 10 10 11 11 11 5 6 5 9 9 9 5 2 2 8 6 8 10 7
12 16 14 9 13 13 14 14 14 14 15 15 17 17 18 18 18 18 18 18 18 17 15 14 13 15 14 13 13 13 12 11 10 9 9 9 8 8 8 7 7 7 6 6 5 6 5 5 5 5 5 6 5 5 6 6 8 8 9 8 8 9 9 8 8 9 9 9 9 10 10 10 10 11 10 4 5 3 4 4 1 2 9 10 9 10 10
13 14 10 11 15 17 15 15 15 15 15 16 16 18 18 19 18 18 18 17 16 17 16 15 14 13 14 13 12 12 12 11 10 9 9 8 8 8 8 8 7 6 6 5 5 5 5 4 4 5 5 6 5 6 6 6 7 7 8 7 8 7 8 9 8 8 8 9 10 9 10 10 10 10 9 10 9 3 3 1 3 1 6 9 10 8 7
15 13 14 16 16 17 16 15 16 15 16 16 17 17 18 18 18 18 17 16 15 15 15 15 14 14 13 13 11 12 12 12 12 11 9 9 8 8 8 8 7 6 6 6 6 5 4 3 4 5 5 5 5 5 5 6 7 7 7 7 6 7 7 8 8 8 8 8 9 9 9 9 10 10 11 11 10 10 7 2 3 3 4 6 6 7 5
14 16 18 18 17 16 16 16 16 17 17 17 18 18 18 17 16 16 15 15 16 15 14 14 13 13 12 11 13 12 12 11 9 8 8 8 9 8 7 6 6 6 4 5 5 3 1 3 4 5 5 4 4 4 4 5 5 6 6 7 6 8 6 5 7 8 8 7 9 9 8 9 10 10 10 10 10 10 9 10 11 10 7 4 6 8 6
12 14 14 15 17 17 17 17 19 18 18 18 18 19 18 17 17 18 18 17 15 14 13 13 13 12 12 12 12 12 11 10 9 9 9 9 8 7 8 7 6 5 4 4 5 4 4 4 4 4 5 4 4 4 4 4 4 5 6 5 5 7 7 8 9 7 7 8 7 7 8 8 9 9 9 9 9 9 9 9 10 9 8 8 5 4 4
14 13 12 14 16 17 18 17 18 18 18 17 18 17 18 18 18 17 16 15 15 14 13 13 12 12 12 12 11 11 10 10 10 10 9 8 8 8 7 6 5 4 3 4 3 3 3 4 4 4 5 4 4 4 4 5 5 4 5 6 6 6 7 7 8 9 7 7 7 7 8 5 8 9 9 9 9 9 10 10 10 9 9 9 6 2 4
13 13 15 16 17 19 20 18 18 19 18 18 18 17 17 18 17 15 15 16 14 13 13 13 11 10 10 10 10 10 10 10 10 9 9 8 8 7 7 6 5 4 4 4 3 2 2 3 4 4 4 3 4 4 4 3 5 6 3 6 5 6 6 7 7 7 7 7 6 6 7 8 7 7 9 9 10 10 10 10 9 9 10 10 9 9 10
15 16 18 18 19 19 19 19 18 18 18 18 18 18 17 16 16 15 15 14 12 12 12 11 11 11 10 9 10 9 9 9 9 9 8 8 7 6 5 3 2 3 3 3 2 2 2 2 3 4 2 3 3 4 4 4 4 4 4 5 3 8 6 5 6 7 6 6 7 7 8 8 7 8 8 8 9 9 9 9 9 9 9 9 9 9 9
18 18 19 18 17 18 17 16 17 17 16 17 17 17 16 16 16 16 14 13 12 13 12 11 11 10 9 8 9 10 9 9 8 8 8 7 6 3 1 2 5 3 2 2 1 1 1 1 3 3 2 2 3 3 4 4 5 4 5 4 5 1 4 2 5 6 6 6 6 6 7 7 8 8 7 7 8 8 8 9 9 8 9 9 8 7 7
18 19 18 18 18 18 17 16 17 18 17 17 15 14 14 13 13 13 12 12 12 11 10 10 10 8 9 9 9 9 9 8 8 8 6 4 2 0 3 2 3 2 1 1 1 1 1 2 2 2 2 2 2 4 4 4 5 4 5 6 4 5 5 3 3 6 6 6 6 6 6 5 7 6 8 8 7 8 8 7 6 7 9 9 8 5 4
15 14 15 15 16 16 18 18 16 16 15 14 14 13 13 13 13 11 11 11 11 11 9 9 9 9 8 9 8 8 5 5 5 4 4 3 2 2 2 3 2 2 2 1 2 1 1 2 2 1 2 3 1 2 4 5 5 5 4 5 5 5 6 6 6 5 6 6 6 5 7 6 8 8 7 7 7 7 7 7 8 7 6 8 8 6 4
13 14 14 15 16 16 16 16 16 15 15 15 14 13 12 12 12 11 10 10 10 9 9 9 9 9 7 6 7 6 5 2 4 6 4 4 3 3 4 3 3 3 3 4 3 2 2 1 1 3 4 3 2 1 2 5 6 5 4 5 5 5 5 6 6 6 6 6 6 6 5 6 7 7 7 7 7 6 6 7 6 8 6 6 7 8 4
15 15 15 14 15 17 16 16 14 15 13 13 12 12 12 12 11 11 10 9 9 9 9 9 9 9 8 6 5 6 5 3 5 6 5 4 3 3 5 5 4 4 4 4 6 2 2 3 8 3 4 5 4 2 3 5 6 6 3 5 4 5 5 6 6 6 6 6 5 5 5 5 5 6 7 6 6 6 6 6 7 7 6 6 7 7 8
15 15 14 15 15 16 16 14 13 13 13 12 11 11 11 12 13 11 8 8 9 9 8 8 8 9 5 5 5 5 5 5 4 4 4 4 3 3 5 3 3 1 2 4 4 3 3 6 7 5 5 6 6 2 6 1 5 5 6 6 6 6 6 6 6 6 7 6 6 6 5 5 6 6 6 6 6 6 6 6 6 7 7 6 6 6 7
15 15 15 15 15 15 14 13 12 12 12 12 11 10 9 9 10 11 9 8 8 7 8 8 8 9 9 7 4 5 5 3 4 5 4 4 4 6 6 5 4 5 5 1 5 4 5 8 8 4 7 6 3 4 5 3 3 6 7 5 5 5 6 5 6 6 6 6 7 6 7 7 7 6 6 6 7 7 7 6 6 6 6 6 4 5 5
15 14 14 14 13 13 13 13 12 11 11 12 11 11 11 10 9 10 9 8 8 8 8 8 8 10 10 10 9 8 4 4 3 4 4 6 7 6 5 6 7 4 3 6 2 3 7 6 3 5 6 2 2 2 7 3 5 6 7 5 5 6 5 5 7 7 6 6 6 6 7 7 8 8 8 7 6 7 7 5 5 6 7 6 6 5 5
14 14 15 14 13 13 13 13 12 12 12 11 11 10 10 9 8 8 8 8 8 8 8 8 8 8 9 9 10 10 10 9 6 5 7 7 7 7 7 7 7 3 5 6 3 1 6 4 3 5 7 1 1 0 6 3 6 7 6 4 5 5 6 5 6 6 6 6 6 6 6 7 6 7 7 7 7 7 7 7 7 6 6 5 5 4 5
14 14 14 13 13 12 12 12 11 12 12 11 10 10 9 9 9 9 8 8 9 9 8 7 7 7 8 10 9 9 10 10 10 10 9 8 7 7 5 5 6 6 7 2 4 5 3 3 4 6 5 3 3 2 0 7 5 6 5 5 5 5 5 5 5 6 6 6 6 7 7 7 7 8 8 8 7 7 7 6 6 6 6 7 6 5 5
14 15 14 13 13 13 13 12 12 11 10 10 10 9 9 9 8 8 8 8 9 9 8 9 3 2 9 8 8 10 11 10 10 10 10 8 8 6 5 2 7 7 9 6 5 4 5 7 6 5 4 3 3 7 4 4 6 6 4 5 4 4 5 5 5 6 5 5 6 7 7 7 7 8 8 7 7 7 7 6 6 6 6 6 6 5 4
16 16 15 13 12 13 12 11 10 11 11 10 10 11 9 8 7 8 9 9 9 9 8 8 7 3 5 9 9 8 8 8 9 9 8 8 7 6 6 1 7 7 9 3 2 6 6 4 4 2 6 4 4 3 2 5 7 7 5 5 4 4 5 4 5 5 5 5 7 7 7 8 8 7 7 7 7 6 6 6 7 7 6 6 6 4 4
15 14 13 13 12 12 12 12 12 11 9 10 10 10 10 8 7 8 9 9 10 9 9 8 8 8 6 6 6 6 6 7 7 7 7 7 8 8 6 5 5 6 3 3 5 5 6 4 5 9 8 8 5 1 4 6 6 7 6 6 5 5 5 5 5 5 5 5 7 6 6 7 8 8 7 5 4 7 7 7 7 7 7 6 6 4 4
15 14 14 13 13 12 12 12 12 12 11 10 9 10 10 9 8 7 8 9 9 9 9 8 8 8 8 8 7 7 7 7 6 6 7 7 7 8 9 5 7 7 6 3 4 4 5 4 9 9 7 4 3 1 4 6 7 7 5 5 5 5 5 6 6 5 5 6 6 6 6 7 7 8 7 6 6 6 6 7 7 7 7 6 6 4 4
15 14 14 13 13 13 12 11 11 10 11 11 10 10 9 9 9 8 7 8 8 8 8 8 8 9 9 8 7 7 9 8 7 6 4 2 3 3 8 1 4 7 8 4 3 5 2 8 9 9 6 4 2 4 6 7 8 7 6 6 5 6 6 6 6 6 6 6 5 5 7 6 6 4 5 7 7 6 6 5 7 7 6 5 5 5 5
14 13 13 13 13 13 12 11 11 11 11 11 11 10 10 10 9 8 8 8 9 9 8 8 8 8 8 8 8 8 7 6 6 5 5 3 8 7 7 8 7 7 6 4 4 1 4 4 5 5 3 3 3 5 6 7 7 7 6 5 6 6 6 6 6 6 6 6 5 5 7 6 7 8 5 4 5 6 6 4 4 7 7 6 5 3 2
14 14 13 13 12 12 12 11 11 11 12 11 10 10 10 10 10 9 9 8 8 9 9 9 8 8 8 8 8 8 7 7 6 8 7 6 4 5 6 5 6 5 3 3 3 2 5 5 5 4 4 3 4 6 7 7 6 7 6 6 6 6 6 6 6 6 7 6 4 6 5 6 6 6 5 5 6 5 5 4 4 5 6 4 5 4 5
13 13 13 13 12 12 12 12 11 10 11 11 11 10 10 11 10 9 9 9 10 9 8 8 8 8 8 7 7 6 7 7 6 4 6 6 5 5 6 10 8 7 5 5 6 4 6 5 4 5 4 5 5 6 7 7 5 4 5 5 6 6 6 6 6 6 6 5 6 6 6 5 5 5 5 6 5 5 5 6 5 4 4 5 5 6 5
13 12 13 12 12 12 12 10 10 10 10 11 11 10 10 10 10 10 9 9 8 8 8 8 8 8 8 7 7 7 6 5 5 3 1 4 2 2 3 4 5 6 3 5 4 6 7 7 6 5 6 5 7 7 5 4 4 5 5 5 5 6 5 5 5 5 7 7 8 7 5 5 5 5 4 6 3 5 3 4 4 5 4 6 5 4 3
13 12 12 12 12 11 12 12 12 12 12 11 11 10 11 11 10 10 9 9 9 9 10 9 8 7 7 7 7 7 6 5 5 3 4 4 5 3 1 3 7 6 6 6 6 5 6 7 7 7 7 6 6 6 4 2 3 4 4 5 5 5 5 5 6 5 5 5 5 6 6 6 6 5 4 5 4 3 4 6 4 3 4 4 4 4 4
13 12 12 12 11 12 12 13 13 12 11 10 11 11 10 10 9 10 9 9 9 9 9 9 8 7 7 7 7 7 7 5 5 6 6 5 4 5 6 3 4 6 6 6 7 6 5 4 7 3 2 4 5 4 4 4 5 4 5 4 4 5 5 4 5 5 5 5 5 6 6 6 6 4 4 5 5 5 5 4 3 3 5 3 3 3 4
Wind_Direction
190 296 212 169 198 204 202 200 201 206 213 215 228 238 242 9 339 125 143 144 130 143 148 146 140 138 133 132 130 127 124 122 124 124 118 111 113 108 86 78 70 64 58 52 46 41 38 32 25 26 21 17 15 10 14 14 8 6 8 5 4 5 6 4 3 358 357 358 351 355 353 352 352 351 350 347 343 342 341 337 337 337 336 339 339 336 332
160 154 189 201 206 189 203 195 190 199 206 201 210 224 262 56 119 132 135 120 119 136 138 138 133 128 125 123 125 125 124 125 124 121 117 115 107 90 84 77 72 65 59 55 48 43 36 28 28 26 23 21 15 13 14 11 10 3 9 7 6 8 6 5 3 1 0 358 356 355 355 356 354 352 352 353 348 346 345 342 341 340 341 342 343 342 335
134 146 141 103 94 116 99 111 156 183 217 188 136 108 105 101 97 111 117 118 111 116 125 123 122 119 120 124 125 123 124 127 125 118 117 116 101 93 88 83 75 68 61 56 50 44 37 32 32 28 22 19 18 16 13 12 10 9 13 9 10 11 7 7 3 1 2 1 358 359 357 359 355 355 356 354 351 349 347 346 343 344 345 344 344 341 339
150 148 142 130 135 111 98 90 89 118 147 130 136 120 130 127 132 126 125 122 131 134 130 124 125 127 127 126 126 126 125 124 121 122 117 108 101 93 86 80 73 67 61 54 48 44 39 34 32 28 22 20 19 15 14 14 13 11 15 13 11 10 11 7 4 2 4 1 1 1 1 0 359 358 356 357 354 351 350 348 348 346 347 347 345 347 341
153 151 146 144 139 121 115 97 72 58 91 95 94 85 90 119 132 140 162 147 143 141 137 130 130 129 127 126 127 126 125 123 126 117 109 104 97 90 86 77 70 63 58 55 50 43 41 36 32 26 20 20 20 17 15 15 14 14 16 20 14 12 12 8 5 6 4 3 3 4 3 1 360 0 359 358 357 354 352 350 348 350 349 347 348 346 345
134 138 157 184 176 190 155 71 145 281 123 107 96 77 64 57 80 58 97 127 136 137 139 132 134 129 129 127 122 122 123 124 116 112 110 106 102 94 86 81 70 65 58 54 50 44 41 39 32 28 25 21 22 22 19 22 17 19 19 20 20 16 12 8 6 4 5 3 1 2 2 1 3 2 0 359 359 355 352 352 351 350 348 349 349 347 348
147 149 179 194 203 163 67 200 327 36 88 87 88 84 81 93 100 104 111 125 134 137 131 129 125 122 121 118 116 117 117 119 119 115 110 105 100 93 88 80 74 68 65 60 54 46 39 38 34 29 30 24 25 27 23 23 23 23 24 23 25 19 14 11 7 6 3 2 1 360 0 0 1 1 1 2 359 357 357 357 355 353 351 350 350 350 349
132 159 178 193 140 50 151 106 117 92 105 107 89 69 64 83 105 117 122 129 129 128 126 124 126 124 117 110 104 109 114 117 118 115 110 106 101 95 89 82 77 73 67 61 54 52 45 41 39 35 35 28 28 29 26 23 22 21 21 21 22 21 18 15 11 10 7 4 3 2 2 2 359 359 359 0 0 359 356 358 360 358 357 356 354 353 351
163 156 145 50 119 142 136 149 148 157 149 196 167 112 72 90 116 123 123 124 126 126 129 128 127 123 115 105 102 108 114 113 113 111 108 108 104 99 93 85 81 75 70 65 57 52 50 40 38 37 32 29 30 30 29 26 22 22 17 19 19 18 18 15 17 12 9 8 6 3 3 1 3 3 359 358 359 357 357 0 0 3 1 3 1 359 357
185 155 135 150 188 203 187 198 191 175 39 51 82 102 103 114 124 128 130 132 134 133 133 134 133 132 109 103 116 128 124 120 115 111 108 108 105 100 97 95 85 79 76 73 66 53 46 43 40 37 32 28 33 32 31 27 25 23 19 19 15 14 15 14 12 17 14 12 10 4 4 3 3 2 2 2 359 356 358 358 3 3 360 2 5 5 2
181 174 186 175 174 52 118 158 177 182 221 200 157 139 118 153 146 145 140 137 138 139 141 142 148 147 115 124 139 144 137 128 124 121 115 107 104 103 99 93 89 80 67 56 54 52 48 44 41 34 33 33 27 32 31 28 27 24 21 19 15 13 13 13 14 14 14 13 11 7 8 8 4 3 4 2 4 2 359 359 1 2 1 3 5 7 6
179 185 195 161 43 93 145 144 160 176 162 189 196 226 176 165 154 150 145 142 144 145 147 154 169 157 139 150 150 148 140 133 127 123 119 118 116 111 108 103 90 82 79 77 62 55 48 47 41 35 27 32 32 32 29 23 25 23 21 18 17 14 13 13 12 15 14 11 9 10 9 5 11 11 3 3 3 5 5 4 359 0 2 1 4 6 10
165 192 109 96 106 52 115 141 155 144 164 192 199 229 122 156 150 152 149 144 145 145 149 167 146 103 114 132 138 138 136 135 129 124 122 116 116 115 114 108 120 101 84 67 55 47 52 45 44 35 33 34 28 25 27 22 24 21 17 12 13 17 14 13 13 15 15 11 7 9 9 7 9 13 12 6 3 3 5 8 13 7 4 1 4 6 9
193 152 120 87 96 99 121 142 148 153 172 201 163 77 128 141 144 147 144 140 141 143 137 128 115 110 115 126 130 136 138 135 131 127 125 123 116 113 109 141 127 102 85 77 69 62 53 50 54 53 40 36 33 27 27 24 22 15 13 11 10 17 16 11 14 15 14 17 10 8 9 8 7 7 13 14 7 3 2 5 11 14 11 7 3 5 6
173 172 135 152 174 170 218 146 130 27 273 83 107 124 128 135 135 140 138 137 137 132 122 120 121 121 124 129 135 137 136 134 132 131 133 132 130 135 142 142 108 90 99 78 65 59 51 44 48 43 51 40 31 26 29 26 22 14 14 12 10 15 14 14 9 20 16 16 14 10 12 8 8 11 11 13 13 6 4 4 10 13 13 12 10 6 6
249 178 146 73 49 133 161 171 141 125 77 120 129 131 128 132 134 134 133 134 133 130 126 127 124 125 128 132 134 133 132 132 130 132 133 132 132 124 98 97 102 93 87 86 81 65 54 44 49 47 43 50 30 29 30 25 18 17 16 17 16 12 11 13 10 18 17 16 22 14 15 14 12 11 14 12 13 14 9 6 6 11 13 13 11 12 7
27 54 91 119 111 111 110 85 107 114 119 128 131 127 130 133 133 134 131 131 130 132 129 126 129 132 136 133 135 133 136 136 135 136 140 135 118 115 115 101 95 88 86 87 79 71 66 61 42 37 33 39 39 30 37 18 25 30 14 11 21 17 14 14 11 15 24 14 21 16 16 17 17 15 15 16 12 12 16 12 8 8 13 13 16 13 13
89 68 72 94 111 114 106 98 105 114 118 119 126 129 129 130 131 132 133 134 132 133 134 130 133 132 134 134 135 136 137 137 139 137 126 117 114 113 113 104 92 100 104 89 76 68 60 51 55 38 36 29 32 32 29 21 28 26 21 13 28 23 15 17 19 9 24 13 16 25 18 12 13 16 16 16 18 12 13 14 12 12 12 14 13 21 16
134 76 103 104 104 112 107 106 109 115 122 128 130 127 125 128 127 126 133 132 135 135 138 134 132 133 136 136 138 137 135 141 139 127 123 117 114 110 98 99 131 110 101 89 81 73 65 50 45 44 29 37 32 22 27 17 24 24 23 3 18 31 17 17 15 12 19 19 5 26 23 24 18 19 17 17 24 19 16 14 15 14 18 17 12 15 23
71 129 137 120 109 106 112 115 120 123 126 128 127 125 126 126 129 128 127 133 134 139 134 134 134 134 138 138 137 142 140 127 122 123 120 117 110 102 103 104 92 100 89 85 70 65 62 51 47 36 28 31 41 30 28 27 23 24 26 16 7 25 30 20 10 13 19 14 9 13 18 52 30 29 22 22 25 33 16 18 15 16 17 18 14 14 19
101 116 126 129 123 114 114 118 116 122 128 128 124 124 126 131 129 129 133 135 135 136 134 135 137 138 141 142 139 129 124 132 131 126 123 116 114 117 117 103 81 75 75 77 76 69 56 49 42 42 40 30 22 31 29 33 25 24 23 25 13 23 33 23 6 13 17 14 7 10 14 58 76 49 41 28 28 38 42 19 14 17 19 21 13 14 25
149 158 161 150 136 141 134 127 127 127 128 129 127 127 130 134 134 134 133 133 132 134 138 141 143 141 141 136 128 133 132 128 124 126 125 125 122 118 115 115 108 100 87 82 68 62 57 46 44 43 36 39 26 25 25 19 24 28 25 27 18 18 29 31 12 9 18 13 15 12 13 17 92 121 20 12 13 33 59 59 8 4 21 34 2 5 30
161 152 155 176 127 130 136 138 136 135 135 134 136 137 137 138 136 136 134 135 137 139 146 156 149 136 132 135 137 130 126 127 134 132 130 127 124 120 120 116 107 96 94 87 77 60 53 39 46 42 41 31 33 36 28 15 26 28 28 23 20 12 24 26 22 1 16 16 10 10 7 9 9 42 138 105 49 58 70 52 22 74 73 59 27 14 18
118 143 166 138 129 138 141 141 141 138 138 138 137 138 138 137 136 135 136 139 141 140 141 131 123 132 134 135 132 128 127 127 123 122 119 119 117 116 112 112 114 110 101 87 75 64 49 41 41 41 45 34 22 27 30 21 31 33 26 27 33 9 11 17 22 13 8 12 6 12 14 11 10 359 5 42 131 33 56 95 67 43 85 67 48 29 29
135 147 139 121 122 127 135 138 140 140 141 140 138 138 138 136 136 139 140 141 141 139 136 134 136 135 132 130 131 134 133 128 123 116 114 107 109 115 118 118 114 103 87 74 64 56 54 36 42 38 42 39 28 13 18 28 28 32 31 23 34 28 3 2 11 17 6 6 358 15 3 5 9 1 6 2 4 61 169 11 355 274 95 87 74 57 42
129 118 117 121 125 126 131 134 135 138 138 138 137 135 136 137 139 142 141 137 131 132 132 134 134 134 135 135 134 128 125 124 131 141 134 135 130 124 119 110 108 103 93 77 63 52 49 50 46 44 41 39 28 15 8 20 22 23 25 21 46 31 24 354 0 8 8 9 349 7 360 355 6 1 8 5 1 360 11 96 170 157 98 81 104 122 83
120 124 130 128 126 129 137 138 138 139 139 138 137 138 138 141 146 134 128 129 134 136 133 131 130 131 129 127 127 128 127 136 152 139 122 124 123 117 117 113 101 95 97 92 83 72 58 50 53 44 42 31 24 13 9 24 13 30 17 17 32 148 135 12 352 4 1 7 349 1 352 356 2 2 1 8 1 358 5 356 0 357 12 81 62 35 40
125 133 141 136 135 136 135 134 135 137 139 138 139 139 140 141 137 137 138 135 134 133 133 133 131 128 124 125 126 129 141 144 126 125 129 126 123 124 119 122 127 121 100 88 77 57 49 54 58 44 40 20 21 17 7 12 14 23 358 9 47 8 11 360 347 357 359 360 2 4 340 359 354 6 351 360 358 1 357 3 359 355 356 18 92 109 98
136 138 132 129 128 129 132 132 135 137 138 140 140 140 140 137 136 136 136 136 135 134 133 132 132 133 132 136 141 138 134 130 132 131 129 128 132 129 128 129 123 123 104 85 65 54 54 49 49 51 45 3 25 2 20 347 354 44 4 344 19 22 6 2 344 338 346 354 10 358 308 339 355 355 354 356 357 1 357 2 8 356 354 1 16 110 213
138 134 131 129 131 135 135 137 140 140 142 143 144 142 143 142 139 138 138 136 140 138 134 137 139 138 140 140 137 136 138 134 133 132 132 138 136 141 144 144 142 149 146 98 69 54 23 61 43 41 34 14 18 8 13 344 334 353 29 354 18 16 15 5 342 334 339 353 355 333 339 1 3 352 354 356 353 360 1 6 12 0 350 8 11 7 3
138 134 131 134 137 142 141 140 142 145 145 145 145 144 142 143 138 138 139 142 140 136 143 141 139 138 142 139 142 139 133 134 134 135 138 138 146 146 151 186 217 140 92 71 61 26 8 46 58 36 26 14 15 10 5 345 339 334 3 0 49 112 90 21 323 343 336 351 340 345 355 346 1 2 349 352 359 356 1 358 4 2 356 6 9 11 10
136 135 139 142 145 144 145 144 144 141 143 147 148 146 147 144 143 142 142 144 142 143 145 141 142 148 144 146 137 137 140 137 134 136 134 115 83 38 15 118 88 83 102 94 23 58 333 334 50 46 351 31 353 22 359 353 332 338 7 345 350 271 56 184 327 345 325 350 330 4 350 340 353 346 354 4 352 354 356 359 4 356 2 8 13 24 23
141 144 147 153 151 146 144 143 146 146 148 148 147 145 144 143 141 143 146 141 145 147 148 148 149 148 148 145 146 146 139 142 129 107 99 85 67 250 234 126 136 130 140 193 118 193 126 350 57 4 346 346 14 4 360 337 334 334 13 340 356 349 332 355 358 303 346 341 347 7 339 347 333 349 352 355 355 346 350 356 0 357 356 1 4 38 47
152 152 155 147 144 149 150 149 147 145 147 146 145 146 144 144 145 147 142 146 148 154 152 151 155 152 149 161 155 134 127 132 132 121 128 146 180 253 194 167 180 168 194 234 226 253 38 64 5 342 339 335 327 20 335 341 337 324 7 339 343 340 339 352 321 342 340 339 342 333 343 10 339 355 342 345 343 343 345 355 350 352 353 356 360 16 121
149 139 142 144 149 148 146 145 147 147 147 146 148 145 146 146 149 148 146 152 154 158 154 165 158 155 143 114 96 108 136 148 122 136 161 179 188 226 244 194 198 194 215 186 252 151 97 285 43 355 332 283 292 293 2 349 332 316 7 340 331 327 342 338 330 337 336 333 347 346 354 359 351 334 331 328 329 343 336 349 347 346 350 348 350 351 359
144 146 148 145 146 147 146 145 146 146 146 146 146 146 148 149 150 143 157 161 156 163 171 168 151 131 101 113 123 140 151 129 147 151 162 185 181 215 228 224 212 206 229 222 170 154 230 140 80 24 310 319 305 228 66 359 322 315 325 276 343 333 344 326 338 329 337 329 348 335 2 331 323 327 324 323 324 340 343 343 345 345 352 350 343 353 351
147 146 146 145 145 148 146 146 147 148 149 148 147 148 154 161 158 149 170 165 169 168 169 162 150 149 143 157 162 154 148 149 156 160 165 175 188 221 228 239 247 255 242 262 124 150 233 115 132 178 252 249 243 113 89 55 312 328 305 321 0 327 350 335 338 331 335 326 347 324 312 318 346 328 333 332 330 347 343 332 348 345 352 354 349 342 349
147 146 145 147 148 146 146 145 147 147 147 150 148 151 156 172 151 152 177 179 171 170 163 163 164 158 143 139 135 149 163 138 124 137 139 173 200 213 213 218 220 202 211 239 118 223 90 117 152 211 244 254 6 86 115 126 305 290 288 331 337 340 341 337 332 333 317 333 324 321 334 320 323 334 343 341 341 344 343 341 348 338 337 340 349 343 336
147 145 146 147 148 148 149 149 156 149 154 153 159 165 164 183 169 157 176 178 173 169 163 173 171 156 159 168 168 164 172 174 159 148 163 198 215 224 230 228 237 266 50 44 53 301 123 139 236 249 267 356 333 144 119 154 262 278 290 319 341 343 331 347 330 325 328 326 322 343 317 306 325 349 333 335 343 334 331 349 329 323 325 339 348 350 351
149 153 151 155 153 155 152 156 157 162 164 166 170 165 166 175 170 174 180 175 166 164 178 174 171 163 171 179 178 176 182 176 178 189 201 208 210 224 229 229 229 229 83 69 271 88 85 101 239 268 278 72 286 186 123 145 242 280 281 332 322 333 352 334 325 329 328 331 335 312 314 327 336 321 320 329 340 341 336 340 340 341 329 344 351 358 358
155 154 155 158 154 156 157 163 169 172 168 170 166 163 171 175 174 182 170 170 154 177 181 170 171 169 173 181 176 176 172 178 185 196 202 210 213 220 240 243 150 147 150 166 352 54 123 227 270 274 275 283 151 42 350 157 247 265 300 323 320 356 336 329 332 320 341 325 333 329 341 329 327 326 344 328 338 346 334 342 345 336 337 346 341 348 7
159 158 161 163 161 163 165 169 168 166 166 163 168 162 170 176 175 177 165 165 165 184 178 178 116 123 181 173 190 177 169 178 186 194 202 212 216 213 218 199 127 116 95 106 156 209 212 211 211 236 275 304 97 93 20 307 288 294 310 301 346 347 315 314 326 332 324 334 338 330 329 340 348 335 323 329 347 349 333 334 336 341 346 346 333 347 3
162 162 164 164 166 160 163 168 169 171 171 176 174 160 169 169 175 176 170 170 170 183 188 185 170 252 249 184 191 194 178 181 192 200 200 212 226 279 295 307 131 128 144 178 265 251 246 228 235 156 91 51 60 103 239 271 277 290 302 308 353 320 302 316 318 319 326 343 316 331 353 358 330 329 336 347 343 332 328 334 337 341 346 345 333 344 5
170 169 170 170 170 167 169 171 176 180 183 172 177 164 171 170 179 187 184 180 179 183 197 189 180 194 203 228 199 200 197 196 197 209 215 216 210 216 210 256 112 122 184 163 223 254 282 273 104 102 95 102 104 320 271 274 282 280 314 349 336 308 307 306 306 316 325 328 316 342 357 337 330 337 342 346 337 332 336 337 339 336 344 341 336 343 15
175 174 175 176 171 174 186 176 182 177 180 180 179 175 176 172 185 194 193 187 190 186 198 204 185 188 198 204 212 210 224 207 211 204 210 229 231 210 177 153 135 153 141 175 268 275 260 77 101 111 114 125 106 322 261 268 277 299 314 293 296 310 316 303 300 306 312 315 315 338 340 331 339 335 349 349 329 328 333 341 337 329 333 342 326 353 50
179 179 178 181 180 184 190 184 179 180 183 186 185 180 185 189 187 184 189 190 188 186 197 201 195 193 201 199 208 216 237 235 206 213 251 287 17 72 107 75 120 98 133 183 253 268 49 97 113 109 126 138 195 231 249 256 256 253 279 301 306 312 308 298 313 313 312 307 319 344 332 327 307 325 346 335 349 325 326 330 313 321 334 336 340 357 339
181 181 178 185 191 187 189 192 181 190 192 190 189 189 190 198 195 187 187 194 194 186 195 211 213 202 204 210 207 212 212 224 227 228 242 216 123 123 94 89 109 126 159 206 242 281 72 108 102 111 132 156 237 260 263 269 283 306 301 293 293 293 294 300 293 291 291 300 345 310 281 286 306 331 4 331 317 325 338 336 334 331 337 336 325 316 296
184 185 183 190 195 189 192 195 196 198 199 196 194 195 190 202 199 199 191 193 207 196 191 205 208 207 210 212 214 224 223 211 212 206 199 215 212 161 189 209 142 119 165 232 275 163 111 103 110 155 158 194 222 248 256 260 262 267 285 304 310 307 299 299 305 299 295 317 314 306 321 325 322 320 340 338 336 337 349 339 331 336 335 337 338 329 324
187 189 193 197 197 194 199 201 201 206 207 197 197 198 193 199 203 202 199 196 207 210 201 204 205 208 208 217 226 223 224 253 266 276 160 180 207 209 116 104 118 138 209 237 221 182 130 145 162 195 190 226 246 250 255 267 290 310 303 299 297 303 307 300 304 322 328 326 317 304 304 319 311 328 348 326 319 351 346 336 338 340 350 337 315 311 306
189 192 196 197 199 203 202 201 208 206 203 199 199 199 192 196 205 204 203 203 203 205 207 204 206 206 207 203 199 231 225 220 218 261 221 163 159 208 171 186 153 167 232 272 234 138 144 172 183 196 214 227 241 253 267 288 293 285 301 305 300 288 293 310 328 322 295 290 276 276 286 296 316 339 310 300 348 346 332 341 333 332 269 260 302 312 318
194 199 202 201 206 204 204 206 204 203 203 200 201 200 196 198 204 203 205 202 200 204 215 208 206 206 207 212 210 212 208 192 212 222 221 200 208 177 210 172 147 175 203 228 243 223 173 192 195 184 206 231 252 257 264 288 306 304 279 269 278 291 292 278 266 268 264 274 294 303 302 300 290 302 316 315 323 327 332 324 319 329 333 334 327 325 318
200 203 205 205 205 204 205 204 206 204 204 199 200 203 205 200 203 207 206 192 207 205 213 216 209 203 210 210 210 212 200 208 201 178 219 236 204 201 172 218 223 174 198 221 226 227 235 145 118 159 325 280 262 253 126 140 237 254 266 272 273 265 265 286 298 294 295 296 281 280 282 290 310 315 302 307 316 315 310 307 313 322 329 332 331 330 320